OpenBCM V1.08-5-g2f4a (Linux)

Packet Radio Mailbox

IZ3LSV

[San Dona' di P. JN]

 Login: GUEST





  
CX2SA  > KEPS     07.11.14 01:15l 108 Lines 2773 Bytes #999 (0) @ WW
BID : ORB14310.O
Read: GUEST
Subj: Orbital Elements  14310.OSCAR
Path: IZ3LSV<IQ5KG<IK1NHL<CX2SA
Sent: 141107/0012Z @:CX2SA.SAL.URY.SOAM #:12123 [Salto] FBB7.00e $:ORB14310.O
From: CX2SA@CX2SA.SAL.URY.SOAM
To  : KEPS@AMSAT


HR AMSAT ORBITAL ELEMENTS FOR OSCAR SATELLITES
FROM WA5QGD FORT WORTH,TX November 6, 2014
BID: ORB14310.O
TO ALL RADIO AMATEURS BT

Satellite: AO-07
Catalog number: 07530
Epoch time:      14309.86930623
Element set:     112
Inclination:      101.4915 deg
RA of node:       287.1246 deg
Eccentricity:    0.0012160
Arg of perigee:   020.0599 deg
Mean anomaly:     047.4354 deg
Mean motion:   12.53608701 rev/day
Decay rate:       -4.6e-07 rev/day^2
Epoch rev:           82927
Checksum:              276

Satellite: FO-29
Catalog number: 24278
Epoch time:      14309.97804657
Element set:     511
Inclination:      098.5166 deg
RA of node:       304.2766 deg
Eccentricity:    0.0349425
Arg of perigee:   289.7877 deg
Mean anomaly:     120.8904 deg
Mean motion:   13.53035406 rev/day
Decay rate:       -3.5e-07 rev/day^2
Epoch rev:           89984
Checksum:              354

Satellite: SO-33
Catalog number: 25509
Epoch time:      14310.44718072
Element set:     876
Inclination:      031.4345 deg
RA of node:       074.2421 deg
Eccentricity:    0.0349017
Arg of perigee:   280.8601 deg
Mean anomaly:     146.5060 deg
Mean motion:   14.29727100 rev/day
Decay rate:       6.09e-06 rev/day^2
Epoch rev:           83752
Checksum:              284

Satellite: RS-22
Catalog number: 27939
Epoch time:      14310.88229979
Element set:      15
Inclination:      097.8190 deg
RA of node:       118.0574 deg
Eccentricity:    0.0013721
Arg of perigee:   018.6080 deg
Mean anomaly:     341.5631 deg
Mean motion:   14.65477659 rev/day
Decay rate:      1.291e-05 rev/day^2
Epoch rev:           59362
Checksum:              324

Satellite: HO-68
Catalog number: 36122
Epoch time:      14310.69789142
Element set:      94
Inclination:      100.2311 deg
RA of node:       358.1129 deg
Eccentricity:    0.0007390
Arg of perigee:   271.7684 deg
Mean anomaly:     088.2581 deg
Mean motion:   13.16319652 rev/day
Decay rate:       -6.0e-07 rev/day^2
Epoch rev:           23518
Checksum:              293

Satellite: AO-73
Catalog number: 39444
Epoch time:      14309.73262861
Element set:     301
Inclination:      097.7617 deg
RA of node:       015.5055 deg
Eccentricity:    0.0062277
Arg of perigee:   142.6080 deg
Mean anomaly:     217.9490 deg
Mean motion:   14.78933125 rev/day
Decay rate:      2.928e-05 rev/day^2
Epoch rev:            5038
Checksum:              314

Satellite: EO-79
Catalog number: 40025
Epoch time:      14310.68937943
Element set:     413
Inclination:      097.9688 deg
RA of node:       205.5564 deg
Eccentricity:    0.0012631
Arg of perigee:   187.0115 deg
Mean anomaly:     173.0936 deg
Mean motion:   14.85796264 rev/day
Decay rate:      3.278e-05 rev/day^2
Epoch rev:            2074
Checksum:              326



Read previous mail | Read next mail


 17.12.2025 17:21:14lGo back Go up